Find Starlink 30566

NORAD ID: 58054 Int'l Des: 2023-158 Owner: SPXS Country: US Constellation: starlink operational
LEOCIRCULAR

当前视图

正在加载3D地球...

About Starlink 30566

Starlink 30566 (NORAD 58054) is a starlink constellation satellite (v2 mini) launched Oct 13, 2023 by SPXS of US. It operates in LEO, CIRCULAR orbit with a mass of 730.00 kg.

关于 Starlink 30566

正在加载描述...

即将过境

Passes for default location (London). Set your location on the main map for personalized predictions.

高度历史

Loading altitude history...

两行轨道根数

1 58054U 23158D 26178.15796301 .00047331 00000-0 17183-2 0 9997
2 58054 42.9965 128.6683 0001677 271.0460 89.0199 15.27584243150311
Epoch: Jun 27, 2026 • Age: 13 hours

当前状态

高度 486.6 km
速度 7.63 km/s
星下点 40.93°N, 27.53°E
发射日期 Oct 13, 2023
运行时间 2.7 years
类型 internet

技术详情

分类 Payload
质量 730.00 kg
干质量 700.00 kg
总质量 730.00 kg
长度 0.30 m
直径 4.10 m
跨度 29.00 m
形状 Box + pan
制造商 SPXS
平台类型 Starlink V2M
阶段状态 In Orbit
所有者/国家 SPXS/US

Most Searched